Time,TemperatureF,DewpointF,PressureIn,WindDirection,WindDirectionDegrees,WindSpeedMPH,WindSpeedGustMPH,Humidity,HourlyPrecipIn,Conditions,Clouds,dailyrainin,SolarRadiationWatts/m^2,SoftwareType,DateUTC
2013-02-15 00:00:00,62.1,59.7,30.03,ESE,116,1.0,1.0,92,0.04,,,0.92,0,Wunderground v.1.15,2013-02-15 05:00:00,
2013-02-15 00:02:00,62.2,59.8,30.03,ESE,116,1.0,1.0,92,0.00,,,0.92,0,Wunderground v.1.15,2013-02-15 05:02:00,
2013-02-15 00:08:00,62.2,59.8,30.03,ESE,116,0.0,1.0,92,0.00,,,0.00,0,Wunderground v.1.15,2013-02-15 05:08:00,
2013-02-15 00:10:00,62.2,59.8,30.03,ESE,116,0.0,0.0,92,0.00,,,0.00,0,Wunderground v.1.15,2013-02-15 05:10:00,
2013-02-15 00:16:00,62.0,59.6,30.01,ESE,116,0.0,0.0,92,0.00,,,0.00,0,Wunderground v.1.15,2013-02-15 05:16:00,
2013-02-15 00:22:00,62.0,59.6,30.01,ESE,115,0.0,0.0,92,0.00,,,0.00,0,Wunderground v.1.15,2013-02-15 05:22:00,
2013-02-15 00:28:00,62.1,59.7,30.01,ESE,115,0.0,0.0,92,0.00,,,0.00,0,Wunderground v.1.15,2013-02-15 05:28:00,
2013-02-15 00:34:00,62.1,59.7,30.01,ESE,115,0.0,0.0,92,0.00,,,0.00,0,Wunderground v.1.15,2013-02-15 05:34:00,
2013-02-15 00:40:00,62.0,59.3,30.01,ESE,115,0.0,0.0,91,0.00,,,0.00,0,Wunderground v.1.15,2013-02-15 05:40:00,
2013-02-15 00:46:00,62.1,59.1,30.00,ESE,115,0.0,0.0,90,0.00,,,0.00,0,Wunderground v.1.15,2013-02-15 05:46:00,
2013-02-15 00:52:00,62.1,59.1,29.99,ESE,115,0.0,0.0,90,0.00,,,0.00,0,Wunderground v.1.15,2013-02-15 05:52:00,
2013-02-15 00:58:00,62.2,59.2,29.99,ESE,115,0.0,0.0,90,0.00,,,0.00,0,Wunderground v.1.15,2013-02-15 05:58:00,
2013-02-15 01:04:00,62.2,59.5,29.99,ESE,115,0.0,0.0,91,0.00,,,0.00,0,Wunderground v.1.15,2013-02-15 06:04:00,
2013-02-15 01:10:00,62.3,59.6,29.99,SE,136,0.0,4.0,91,0.00,,,0.00,0,Wunderground v.1.15,2013-02-15 06:10:00,
2013-02-15 01:16:00,62.5,59.5,29.99,ESE,116,2.0,4.0,90,0.00,,,0.00,0,Wunderground v.1.15,2013-02-15 06:16:00,
2013-02-15 01:22:00,62.9,59.6,29.99,ESE,117,1.0,2.0,89,0.00,,,0.00,0,Wunderground v.1.15,2013-02-15 06:22:00,
2013-02-15 01:28:00,63.0,59.4,29.98,ESE,105,0.0,2.0,88,0.00,,,0.00,0,Wunderground v.1.15,2013-02-15 06:28:00,
2013-02-15 01:34:00,63.2,59.3,29.98,ESE,105,0.0,0.0,87,0.00,,,0.00,0,Wunderground v.1.15,2013-02-15 06:34:00,
2013-02-15 01:40:00,63.3,59.7,29.99,ESE,105,0.0,0.0,88,0.00,,,0.00,0,Wunderground v.1.15,2013-02-15 06:40:00,
2013-02-15 01:46:00,63.5,59.9,29.98,ESE,105,0.0,0.0,88,0.00,,,0.00,0,Wunderground v.1.15,2013-02-15 06:46:00,
2013-02-15 01:52:00,63.4,60.1,29.98,ESE,105,0.0,0.0,89,0.00,,,0.00,0,Wunderground v.1.15,2013-02-15 06:52:00,
2013-02-15 01:58:00,63.4,60.4,29.99,ESE,105,0.0,0.0,90,0.00,,,0.00,0,Wunderground v.1.15,2013-02-15 06:58:00,
2013-02-15 02:04:00,62.7,60.0,30.00,West,259,1.0,3.0,91,0.00,,,0.00,0,Wunderground v.1.15,2013-02-15 07:04:00,
2013-02-15 02:10:00,62.1,60.1,30.00,West,265,1.0,1.0,93,0.00,,,0.00,0,Wunderground v.1.15,2013-02-15 07:10:00,
2013-02-15 02:16:00,61.7,60.0,30.00,WNW,298,1.0,5.0,94,0.00,,,0.00,0,Wunderground v.1.15,2013-02-15 07:16:00,
2013-02-15 02:22:00,61.4,59.7,30.00,WNW,292,3.0,4.0,94,0.00,,,0.00,0,Wunderground v.1.15,2013-02-15 07:22:00,
2013-02-15 02:28:00,61.3,59.6,30.00,NNW,327,4.0,8.0,94,0.00,,,0.00,0,Wunderground v.1.15,2013-02-15 07:28:00,
2013-02-15 02:34:00,61.1,59.7,30.00,WNW,294,4.0,6.0,95,0.00,,,0.00,0,Wunderground v.1.15,2013-02-15 07:34:00,
2013-02-15 02:40:00,60.9,59.5,30.01,WNW,293,3.0,6.0,95,0.00,,,0.00,0,Wunderground v.1.15,2013-02-15 07:40:00,
2013-02-15 02:46:00,60.7,59.3,30.01,WNW,296,3.0,6.0,95,0.00,,,0.00,0,Wunderground v.1.15,2013-02-15 07:46:00,
2013-02-15 02:52:00,60.6,59.5,30.01,NW,306,3.0,5.0,96,0.00,,,0.00,0,Wunderground v.1.15,2013-02-15 07:52:00,
2013-02-15 02:58:00,60.5,59.4,30.02,NW,310,3.0,6.0,96,0.00,,,0.00,0,Wunderground v.1.15,2013-02-15 07:58:00,
2013-02-15 03:04:00,60.4,59.3,30.02,WNW,300,5.0,5.0,96,0.00,,,0.00,0,Wunderground v.1.15,2013-02-15 08:04:00,
2013-02-15 03:10:00,60.3,59.2,30.01,WNW,288,3.0,3.0,96,0.00,,,0.00,0,Wunderground v.1.15,2013-02-15 08:10:00,
2013-02-15 03:16:00,60.2,59.1,30.01,NW,314,4.0,7.0,96,0.00,,,0.00,0,Wunderground v.1.15,2013-02-15 08:16:00,
2013-02-15 03:22:00,60.0,58.9,30.00,North,349,6.0,6.0,96,0.00,,,0.00,0,Wunderground v.1.15,2013-02-15 08:22:00,
2013-02-15 03:28:00,59.7,58.6,30.00,NW,318,2.0,6.0,96,0.00,,,0.00,0,Wunderground v.1.15,2013-02-15 08:28:00,
2013-02-15 03:34:00,59.6,58.5,30.00,WNW,299,3.0,4.0,96,0.00,,,0.00,0,Wunderground v.1.15,2013-02-15 08:34:00,
2013-02-15 03:40:00,59.5,58.6,30.00,WNW,297,2.0,2.0,97,0.00,,,0.00,0,Wunderground v.1.15,2013-02-15 08:40:00,
2013-02-15 03:46:00,59.2,58.3,30.00,WNW,300,1.0,2.0,97,0.00,,,0.00,0,Wunderground v.1.15,2013-02-15 08:46:00,
2013-02-15 03:52:00,59.0,57.9,30.00,NW,320,0.0,0.0,96,0.00,,,0.00,0,Wunderground v.1.15,2013-02-15 08:52:00,
2013-02-15 03:58:00,58.8,58.0,30.00,NW,307,1.0,1.0,97,0.00,,,0.00,0,Wunderground v.1.15,2013-02-15 08:58:00,
2013-02-15 04:04:00,58.6,57.5,30.00,NW,311,1.0,6.0,96,0.00,,,0.00,0,Wunderground v.1.15,2013-02-15 09:04:00,
2013-02-15 04:10:00,58.4,57.3,30.00,NW,313,1.0,1.0,96,0.00,,,0.00,0,Wunderground v.1.15,2013-02-15 09:10:00,
2013-02-15 04:16:00,58.3,57.5,30.00,NW,317,0.0,1.0,97,0.00,,,0.00,0,Wunderground v.1.15,2013-02-15 09:16:00,
2013-02-15 04:22:00,58.3,57.5,30.01,NW,313,0.0,0.0,97,0.00,,,0.00,0,Wunderground v.1.15,2013-02-15 09:22:00,
2013-02-15 04:28:00,58.3,57.5,30.01,NNW,327,0.0,2.0,97,0.00,,,0.00,0,Wunderground v.1.15,2013-02-15 09:28:00,
2013-02-15 04:34:00,58.2,57.4,30.01,NNW,335,1.0,4.0,97,0.00,,,0.00,0,Wunderground v.1.15,2013-02-15 09:34:00,
2013-02-15 04:40:00,58.1,57.3,30.01,NW,308,1.0,1.0,97,0.00,,,0.00,0,Wunderground v.1.15,2013-02-15 09:40:00,
2013-02-15 04:46:00,58.0,56.9,30.01,NW,309,1.0,1.0,96,0.00,,,0.00,0,Wunderground v.1.15,2013-02-15 09:46:00,
2013-02-15 04:52:00,58.0,57.2,30.02,NW,312,1.0,2.0,97,0.00,,,0.01,0,Wunderground v.1.15,2013-02-15 09:52:00,
2013-02-15 04:58:00,58.0,57.2,30.02,NW,310,1.0,2.0,97,0.00,,,0.01,0,Wunderground v.1.15,2013-02-15 09:58:00,
2013-02-15 05:04:00,58.0,57.2,30.03,West,275,0.0,1.0,97,0.00,,,0.01,0,Wunderground v.1.15,2013-02-15 10:04:00,
2013-02-15 05:10:00,57.8,56.7,30.03,NW,306,1.0,5.0,96,0.00,,,0.01,0,Wunderground v.1.15,2013-02-15 10:10:00,
2013-02-15 05:16:00,57.6,56.8,30.04,NW,309,3.0,5.0,97,0.00,,,0.01,0,Wunderground v.1.15,2013-02-15 10:16:00,
2013-02-15 05:22:00,57.5,56.7,30.04,NW,326,2.0,4.0,97,0.00,,,0.01,0,Wunderground v.1.15,2013-02-15 10:22:00,
2013-02-15 05:28:00,57.4,56.6,30.03,NW,325,1.0,4.0,97,0.00,,,0.01,0,Wunderground v.1.15,2013-02-15 10:28:00,
2013-02-15 05:34:00,57.3,56.5,30.02,NW,325,1.0,1.0,97,0.00,,,0.01,0,Wunderground v.1.15,2013-02-15 10:34:00,
2013-02-15 05:40:00,57.3,56.5,30.02,NW,325,0.0,0.0,97,0.00,,,0.02,0,Wunderground v.1.15,2013-02-15 10:40:00,
2013-02-15 05:46:00,57.3,56.5,30.02,NW,325,0.0,0.0,97,0.00,,,0.02,0,Wunderground v.1.15,2013-02-15 10:46:00,
2013-02-15 05:52:00,57.4,56.6,30.03,NW,325,0.0,0.0,97,0.00,,,0.02,0,Wunderground v.1.15,2013-02-15 10:52:00,
2013-02-15 05:58:00,57.5,56.7,30.02,NW,325,0.0,0.0,97,0.00,,,0.02,0,Wunderground v.1.15,2013-02-15 10:58:00,
2013-02-15 06:04:00,57.6,56.8,30.03,NW,325,0.0,0.0,97,0.00,,,0.02,0,Wunderground v.1.15,2013-02-15 11:04:00,
2013-02-15 06:10:00,57.7,56.9,30.04,NW,311,1.0,4.0,97,0.00,,,0.02,0,Wunderground v.1.15,2013-02-15 11:10:00,
2013-02-15 06:16:00,57.6,56.8,30.04,WNW,302,4.0,4.0,97,0.00,,,0.02,0,Wunderground v.1.15,2013-02-15 11:16:00,
2013-02-15 06:22:00,57.6,56.8,30.04,NW,306,3.0,4.0,97,0.00,,,0.02,0,Wunderground v.1.15,2013-02-15 11:22:00,
2013-02-15 06:28:00,57.5,56.7,30.04,NW,316,2.0,6.0,97,0.00,,,0.02,0,Wunderground v.1.15,2013-02-15 11:28:00,
2013-02-15 06:34:00,57.4,56.6,30.03,NW,318,1.0,2.0,97,0.00,,,0.02,0,Wunderground v.1.15,2013-02-15 11:34:00,
2013-02-15 06:40:00,57.4,56.6,30.03,NW,317,0.0,0.0,97,0.00,,,0.02,0,Wunderground v.1.15,2013-02-15 11:40:00,
2013-02-15 06:46:00,57.4,56.6,30.03,NW,316,0.0,0.0,97,0.00,,,0.02,0,Wunderground v.1.15,2013-02-15 11:46:00,
2013-02-15 06:52:00,57.4,56.6,30.03,NW,317,0.0,0.0,97,0.00,,,0.02,0,Wunderground v.1.15,2013-02-15 11:52:00,
2013-02-15 06:58:00,57.4,56.6,30.02,NNW,338,0.0,1.0,97,0.00,,,0.02,0,Wunderground v.1.15,2013-02-15 11:58:00,
2013-02-15 07:04:00,57.4,56.6,30.03,NNW,336,1.0,4.0,97,0.00,,,0.02,0,Wunderground v.1.15,2013-02-15 12:04:00,
2013-02-15 07:10:00,57.3,56.2,30.01,NNW,341,1.0,1.0,96,0.00,,,0.02,5,Wunderground v.1.15,2013-02-15 12:10:00,
2013-02-15 07:16:00,57.4,56.6,30.03,NNW,341,1.0,1.0,97,0.00,,,0.02,9,Wunderground v.1.15,2013-02-15 12:16:00,
2013-02-15 07:22:00,57.4,56.6,30.04,NNW,341,0.0,0.0,97,0.00,,,0.02,11,Wunderground v.1.15,2013-02-15 12:22:00,
2013-02-15 07:28:00,57.6,56.8,30.03,NNW,341,0.0,0.0,97,0.00,,,0.02,18,Wunderground v.1.15,2013-02-15 12:28:00,
2013-02-15 07:34:00,57.6,56.8,30.03,NNW,341,0.0,0.0,97,0.00,,,0.02,30,Wunderground v.1.15,2013-02-15 12:34:00,
2013-02-15 07:40:00,57.6,56.8,30.04,NNW,327,0.0,2.0,97,0.00,,,0.02,32,Wunderground v.1.15,2013-02-15 12:40:00,
2013-02-15 07:46:00,57.5,56.7,30.04,NW,326,1.0,2.0,97,0.00,,,0.02,42,Wunderground v.1.15,2013-02-15 12:46:00,
2013-02-15 07:52:00,57.5,56.7,30.03,NNW,331,0.0,1.0,97,0.00,,,0.02,53,Wunderground v.1.15,2013-02-15 12:52:00,
2013-02-15 07:58:00,57.7,56.9,30.03,NNW,331,0.0,1.0,97,0.00,,,0.02,56,Wunderground v.1.15,2013-02-15 12:58:00,
2013-02-15 08:04:00,58.0,57.2,30.04,NNW,327,1.0,1.0,97,0.00,,,0.02,37,Wunderground v.1.15,2013-02-15 13:04:00,
2013-02-15 08:10:00,58.1,57.3,30.04,NW,317,1.0,1.0,97,0.00,,,0.02,32,Wunderground v.1.15,2013-02-15 13:10:00,
2013-02-15 08:16:00,58.2,57.4,30.05,NW,316,1.0,4.0,97,0.00,,,0.02,25,Wunderground v.1.15,2013-02-15 13:16:00,
2013-02-15 08:22:00,58.2,57.4,30.06,WNW,302,0.0,0.0,97,0.00,,,0.02,23,Wunderground v.1.15,2013-02-15 13:22:00,
2013-02-15 08:28:00,58.2,57.4,30.06,NW,325,1.0,3.0,97,0.00,,,0.02,23,Wunderground v.1.15,2013-02-15 13:28:00,
2013-02-15 08:34:00,58.2,57.1,30.07,NW,309,2.0,4.0,96,0.00,,,0.02,23,Wunderground v.1.15,2013-02-15 13:34:00,
2013-02-15 08:40:00,58.1,57.0,30.07,NW,317,4.0,4.0,96,0.00,,,0.02,23,Wunderground v.1.15,2013-02-15 13:40:00,
2013-02-15 08:46:00,58.1,57.0,30.07,NW,309,4.0,6.0,96,0.00,,,0.02,40,Wunderground v.1.15,2013-02-15 13:46:00,
2013-02-15 08:52:00,58.0,56.9,30.07,NW,325,4.0,9.0,96,0.00,,,0.02,32,Wunderground v.1.15,2013-02-15 13:52:00,
2013-02-15 08:58:00,58.0,56.9,30.08,NW,308,4.0,9.0,96,0.00,,,0.02,47,Wunderground v.1.15,2013-02-15 13:58:00,
2013-02-15 09:04:00,57.9,56.8,30.08,WNW,297,2.0,4.0,96,0.00,,,0.02,35,Wunderground v.1.15,2013-02-15 14:04:00,
2013-02-15 09:10:00,58.0,56.9,30.08,WNW,296,2.0,2.0,96,0.00,,,0.02,44,Wunderground v.1.15,2013-02-15 14:10:00,
2013-02-15 09:16:00,58.0,56.9,30.08,WNW,302,0.0,2.0,96,0.00,,,0.02,90,Wunderground v.1.15,2013-02-15 14:16:00,
2013-02-15 09:22:00,58.1,57.0,30.08,NW,304,1.0,1.0,96,0.00,,,0.02,91,Wunderground v.1.15,2013-02-15 14:22:00,
2013-02-15 09:28:00,58.2,57.1,30.08,NW,317,1.0,3.0,96,0.00,,,0.02,132,Wunderground v.1.15,2013-02-15 14:28:00,
2013-02-15 09:34:00,58.7,57.6,30.08,WNW,293,1.0,1.0,96,0.00,,,0.02,111,Wunderground v.1.15,2013-02-15 14:34:00,
2013-02-15 09:40:00,58.9,57.5,30.08,WNW,296,0.0,0.0,95,0.00,,,0.02,167,Wunderground v.1.15,2013-02-15 14:40:00,
2013-02-15 09:46:00,59.3,57.9,30.08,WNW,301,0.0,4.0,95,0.00,,,0.02,264,Wunderground v.1.15,2013-02-15 14:46:00,
2013-02-15 09:52:00,59.7,58.3,30.08,WNW,296,1.0,4.0,95,0.00,,,0.02,211,Wunderground v.1.15,2013-02-15 14:52:00,
2013-02-15 09:58:00,60.1,58.4,30.09,WNW,294,2.0,4.0,94,0.00,,,0.02,139,Wunderground v.1.15,2013-02-15 14:58:00,
2013-02-15 10:04:00,60.3,58.3,30.09,WNW,296,1.0,2.0,93,0.00,,,0.02,127,Wunderground v.1.15,2013-02-15 15:04:00,
2013-02-15 10:10:00,60.6,58.6,30.08,WNW,302,1.0,1.0,93,0.00,,,0.02,227,Wunderground v.1.15,2013-02-15 15:10:00,
2013-02-15 10:16:00,60.8,58.2,30.08,NW,323,1.0,1.0,91,0.00,,,0.02,206,Wunderground v.1.15,2013-02-15 15:16:00,
2013-02-15 10:22:00,61.1,58.5,30.07,North,360,2.0,3.0,91,0.00,,,0.02,352,Wunderground v.1.15,2013-02-15 15:22:00,
2013-02-15 10:28:00,61.4,58.4,30.05,North,5,3.0,4.0,90,0.00,,,0.02,271,Wunderground v.1.15,2013-02-15 15:28:00,
2013-02-15 10:34:00,61.5,58.2,30.07,North,5,2.0,3.0,89,0.00,,,0.02,237,Wunderground v.1.15,2013-02-15 15:34:00,
2013-02-15 10:40:00,61.6,58.6,30.08,NNW,332,3.0,4.0,90,0.00,,,0.02,206,Wunderground v.1.15,2013-02-15 15:40:00,
2013-02-15 10:46:00,61.8,58.8,30.08,NNW,347,3.0,5.0,90,0.00,,,0.02,272,Wunderground v.1.15,2013-02-15 15:46:00,
2013-02-15 10:52:00,62.2,58.6,30.07,NNW,344,3.0,4.0,88,0.00,,,0.02,387,Wunderground v.1.15,2013-02-15 15:52:00,
2013-02-15 10:58:00,62.8,59.2,30.07,North,355,4.0,6.0,88,0.00,,,0.02,367,Wunderground v.1.15,2013-02-15 15:58:00,
2013-02-15 11:04:00,63.2,59.3,30.07,NW,304,3.0,5.0,87,0.00,,,0.02,264,Wunderground v.1.15,2013-02-15 16:04:00,
2013-02-15 11:10:00,62.8,58.9,30.07,NNW,331,2.0,3.0,87,0.00,,,0.02,227,Wunderground v.1.15,2013-02-15 16:10:00,
2013-02-15 11:16:00,62.8,58.5,30.07,NNW,338,1.0,6.0,86,0.00,,,0.02,195,Wunderground v.1.15,2013-02-15 16:16:00,
2013-02-15 11:22:00,62.6,58.7,30.07,NW,311,1.0,4.0,87,0.00,,,0.02,107,Wunderground v.1.15,2013-02-15 16:22:00,
2013-02-15 11:28:00,62.6,58.4,30.08,WNW,303,2.0,6.0,86,0.00,,,0.02,111,Wunderground v.1.15,2013-02-15 16:28:00,
2013-02-15 11:34:00,62.5,58.6,30.07,NW,306,2.0,5.0,87,0.00,,,0.02,128,Wunderground v.1.15,2013-02-15 16:34:00,
2013-02-15 11:40:00,62.5,58.3,30.07,NNW,330,3.0,5.0,86,0.00,,,0.02,156,Wunderground v.1.15,2013-02-15 16:40:00,
2013-02-15 11:46:00,62.6,58.4,30.07,WNW,296,3.0,7.0,86,0.00,,,0.02,207,Wunderground v.1.15,2013-02-15 16:46:00,
2013-02-15 11:52:00,62.9,59.0,30.07,NNW,341,3.0,3.0,87,0.00,,,0.02,411,Wunderground v.1.15,2013-02-15 16:52:00,
2013-02-15 11:58:00,63.3,58.4,30.07,WNW,299,3.0,5.0,84,0.00,,,0.02,193,Wunderground v.1.15,2013-02-15 16:58:00,
2013-02-15 12:04:00,63.1,58.5,30.07,NW,311,4.0,5.0,85,0.00,,,0.02,192,Wunderground v.1.15,2013-02-15 17:04:00,
2013-02-15 12:10:00,63.4,58.8,30.07,NW,311,2.0,2.0,85,0.00,,,0.02,192,Wunderground v.1.15,2013-02-15 17:10:00,
2013-02-15 12:16:00,63.7,58.4,30.07,North,355,2.0,6.0,83,0.00,,,0.02,199,Wunderground v.1.15,2013-02-15 17:16:00,
2013-02-15 12:22:00,63.4,58.1,30.06,NNW,332,2.0,4.0,83,0.00,,,0.02,285,Wunderground v.1.15,2013-02-15 17:22:00,
2013-02-15 12:28:00,63.9,59.0,30.06,NNE,17,3.0,4.0,84,0.00,,,0.02,390,Wunderground v.1.15,2013-02-15 17:28:00,
2013-02-15 12:34:00,64.0,59.1,30.05,NNE,17,3.0,4.0,84,0.00,,,0.02,401,Wunderground v.1.15,2013-02-15 17:34:00,
2013-02-15 12:40:00,64.3,59.4,30.06,NNW,334,3.0,3.0,84,0.00,,,0.02,276,Wunderground v.1.15,2013-02-15 17:40:00,
2013-02-15 12:46:00,64.2,58.9,30.06,North,360,3.0,5.0,83,0.00,,,0.02,322,Wunderground v.1.15,2013-02-15 17:46:00,
2013-02-15 12:52:00,63.8,58.9,30.06,North,360,4.0,8.0,84,0.00,,,0.02,281,Wunderground v.1.15,2013-02-15 17:52:00,
2013-02-15 12:58:00,63.8,58.5,30.05,North,11,6.0,8.0,83,0.00,,,0.02,295,Wunderground v.1.15,2013-02-15 17:58:00,
2013-02-15 13:04:00,63.8,58.5,30.05,NNE,28,6.0,7.0,83,0.00,,,0.02,265,Wunderground v.1.15,2013-02-15 18:04:00,
2013-02-15 13:10:00,64.4,59.5,30.05,NNE,28,4.0,4.0,84,0.00,,,0.02,422,Wunderground v.1.15,2013-02-15 18:10:00,
2013-02-15 13:16:00,64.9,59.3,30.05,NNE,17,2.0,4.0,82,0.00,,,0.02,315,Wunderground v.1.15,2013-02-15 18:16:00,
2013-02-15 13:22:00,64.7,59.1,30.05,NNE,13,1.0,1.0,82,0.00,,,0.02,262,Wunderground v.1.15,2013-02-15 18:22:00,
2013-02-15 13:28:00,64.4,59.1,30.04,NNE,33,1.0,2.0,83,0.00,,,0.02,294,Wunderground v.1.15,2013-02-15 18:28:00,
2013-02-15 13:34:00,64.4,59.1,30.03,NNE,32,1.0,4.0,83,0.00,,,0.02,352,Wunderground v.1.15,2013-02-15 18:34:00,
2013-02-15 13:40:00,64.6,58.6,30.03,NNE,32,2.0,5.0,81,0.00,,,0.02,336,Wunderground v.1.15,2013-02-15 18:40:00,
2013-02-15 13:46:00,64.7,58.7,30.03,NNE,32,1.0,5.0,81,0.00,,,0.02,276,Wunderground v.1.15,2013-02-15 18:46:00,
2013-02-15 13:52:00,65.1,59.1,30.02,NNE,28,1.0,1.0,81,0.00,,,0.02,250,Wunderground v.1.15,2013-02-15 18:52:00,
2013-02-15 13:58:00,64.6,58.6,30.02,NNE,28,3.0,6.0,81,0.00,,,0.02,301,Wunderground v.1.15,2013-02-15 18:58:00,
2013-02-15 14:04:00,64.8,58.8,30.02,NNE,25,3.0,5.0,81,0.00,,,0.02,316,Wunderground v.1.15,2013-02-15 19:04:00,
2013-02-15 14:10:00,64.7,58.7,30.01,NNE,25,2.0,5.0,81,0.00,,,0.02,316,Wunderground v.1.15,2013-02-15 19:10:00,
2013-02-15 14:16:00,65.5,59.9,30.01,NNE,25,2.0,5.0,82,0.00,,,0.02,374,Wunderground v.1.15,2013-02-15 19:16:00,
2013-02-15 14:22:00,66.1,59.7,30.01,NNE,25,0.0,1.0,80,0.00,,,0.02,610,Wunderground v.1.15,2013-02-15 19:22:00,
2013-02-15 14:28:00,65.7,59.4,30.01,ENE,65,0.0,3.0,80,0.00,,,0.02,373,Wunderground v.1.15,2013-02-15 19:28:00,
2013-02-15 14:34:00,65.3,59.0,30.00,ENE,67,1.0,2.0,80,0.00,,,0.02,780,Wunderground v.1.15,2013-02-15 19:34:00,
2013-02-15 14:40:00,65.8,59.8,30.00,ENE,71,1.0,1.0,81,0.00,,,0.02,721,Wunderground v.1.15,2013-02-15 19:40:00,
2013-02-15 14:46:00,65.8,59.1,30.00,ENE,71,0.0,1.0,79,0.00,,,0.02,417,Wunderground v.1.15,2013-02-15 19:46:00,
2013-02-15 14:52:00,66.1,59.0,30.00,ENE,69,1.0,3.0,78,0.00,,,0.02,332,Wunderground v.1.15,2013-02-15 19:52:00,
2013-02-15 14:58:00,65.6,58.9,29.99,ENE,71,1.0,3.0,79,0.00,,,0.02,214,Wunderground v.1.15,2013-02-15 19:58:00,
2013-02-15 15:04:00,65.7,59.0,29.99,ENE,70,1.0,1.0,79,0.00,,,0.02,214,Wunderground v.1.15,2013-02-15 20:04:00,
2013-02-15 15:10:00,65.7,59.4,29.99,ENE,70,0.0,0.0,80,0.00,,,0.02,216,Wunderground v.1.15,2013-02-15 20:10:00,
2013-02-15 15:16:00,66.0,59.3,29.99,ENE,70,0.0,0.0,79,0.00,,,0.02,239,Wunderground v.1.15,2013-02-15 20:16:00,
2013-02-15 15:22:00,66.2,59.5,29.99,ENE,70,0.0,0.0,79,0.00,,,0.02,244,Wunderground v.1.15,2013-02-15 20:22:00,
2013-02-15 15:28:00,66.3,59.6,29.98,ENE,70,0.0,0.0,79,0.00,,,0.02,267,Wunderground v.1.15,2013-02-15 20:28:00,
2013-02-15 15:34:00,66.4,59.3,29.99,ENE,71,0.0,0.0,78,0.00,,,0.02,264,Wunderground v.1.15,2013-02-15 20:34:00,
2013-02-15 15:40:00,66.4,59.7,29.98,ENE,71,0.0,0.0,79,0.00,,,0.02,234,Wunderground v.1.15,2013-02-15 20:40:00,
2013-02-15 15:46:00,67.2,59.7,29.98,ENE,71,0.0,0.0,77,0.00,,,0.02,248,Wunderground v.1.15,2013-02-15 20:46:00,
2013-02-15 15:52:00,67.3,60.2,29.98,ENE,71,0.0,0.0,78,0.00,,,0.02,385,Wunderground v.1.15,2013-02-15 20:52:00,
2013-02-15 15:58:00,67.1,59.6,29.99,ENE,71,0.0,0.0,77,0.00,,,0.02,102,Wunderground v.1.15,2013-02-15 20:58:00,
2013-02-15 16:04:00,67.0,59.5,29.98,NE,52,0.0,1.0,77,0.00,,,0.02,123,Wunderground v.1.15,2013-02-15 21:04:00,
2013-02-15 16:10:00,67.1,60.4,29.98,NE,51,1.0,1.0,79,0.00,,,0.02,144,Wunderground v.1.15,2013-02-15 21:10:00,
2013-02-15 16:16:00,66.9,60.2,29.98,NE,51,1.0,1.0,79,0.00,,,0.02,146,Wunderground v.1.15,2013-02-15 21:16:00,
2013-02-15 16:22:00,66.8,60.4,29.99,NE,51,0.0,4.0,80,0.00,,,0.02,135,Wunderground v.1.15,2013-02-15 21:22:00,
2013-02-15 16:28:00,66.7,60.3,29.99,NE,52,2.0,4.0,80,0.00,,,0.02,127,Wunderground v.1.15,2013-02-15 21:28:00,
2013-02-15 16:34:00,66.6,60.2,29.99,NE,55,2.0,2.0,80,0.00,,,0.02,127,Wunderground v.1.15,2013-02-15 21:34:00,
2013-02-15 16:40:00,66.7,60.0,29.98,NE,55,1.0,1.0,79,0.00,,,0.02,118,Wunderground v.1.15,2013-02-15 21:40:00,
2013-02-15 16:46:00,66.7,60.0,29.98,NE,55,1.0,3.0,79,0.00,,,0.02,121,Wunderground v.1.15,2013-02-15 21:46:00,
2013-02-15 16:52:00,66.6,59.9,29.98,NE,53,0.0,2.0,79,0.00,,,0.02,100,Wunderground v.1.15,2013-02-15 21:52:00,
2013-02-15 16:58:00,66.7,60.0,29.99,NE,53,1.0,2.0,79,0.00,,,0.02,114,Wunderground v.1.15,2013-02-15 21:58:00,
2013-02-15 17:04:00,66.9,60.5,29.99,NE,53,0.0,1.0,80,0.00,,,0.02,160,Wunderground v.1.15,2013-02-15 22:04:00,
2013-02-15 17:10:00,66.8,60.1,29.99,NE,53,1.0,1.0,79,0.00,,,0.02,65,Wunderground v.1.15,2013-02-15 22:10:00,
2013-02-15 17:16:00,66.5,59.8,29.99,NE,53,1.0,1.0,79,0.00,,,0.02,84,Wunderground v.1.15,2013-02-15 22:16:00,
2013-02-15 17:22:00,66.5,60.1,29.99,NE,52,0.0,0.0,80,0.00,,,0.02,165,Wunderground v.1.15,2013-02-15 22:22:00,
2013-02-15 17:28:00,66.7,59.6,29.99,NE,53,0.0,4.0,78,0.00,,,0.02,144,Wunderground v.1.15,2013-02-15 22:28:00,
2013-02-15 17:34:00,66.6,59.5,29.98,NE,53,1.0,1.0,78,0.00,,,0.02,72,Wunderground v.1.15,2013-02-15 22:34:00,
2013-02-15 17:40:00,66.4,60.4,29.98,NE,42,2.0,2.0,81,0.00,,,0.02,33,Wunderground v.1.15,2013-02-15 22:40:00,
2013-02-15 17:46:00,65.9,60.2,29.98,NE,46,2.0,2.0,82,0.00,,,0.02,28,Wunderground v.1.15,2013-02-15 22:46:00,
2013-02-15 17:52:00,65.6,60.0,29.98,NE,48,1.0,1.0,82,0.00,,,0.02,19,Wunderground v.1.15,2013-02-15 22:52:00,
2013-02-15 17:58:00,65.5,59.9,29.98,NE,48,1.0,2.0,82,0.00,,,0.02,16,Wunderground v.1.15,2013-02-15 22:58:00,
2013-02-15 18:04:00,65.4,59.8,29.98,NE,46,1.0,3.0,82,0.00,,,0.02,12,Wunderground v.1.15,2013-02-15 23:04:00,
2013-02-15 18:10:00,65.4,59.8,29.98,NE,46,1.0,1.0,82,0.00,,,0.02,7,Wunderground v.1.15,2013-02-15 23:10:00,
2013-02-15 18:16:00,65.3,59.7,29.98,NE,44,1.0,5.0,82,0.00,,,0.02,0,Wunderground v.1.15,2013-02-15 23:16:00,
2013-02-15 18:22:00,65.2,59.9,29.98,NE,44,1.0,2.0,83,0.00,,,0.02,0,Wunderground v.1.15,2013-02-15 23:22:00,
2013-02-15 18:28:00,65.2,59.9,29.98,NE,44,1.0,2.0,83,0.00,,,0.02,0,Wunderground v.1.15,2013-02-15 23:28:00,
2013-02-15 18:34:00,65.2,59.9,29.98,NE,44,0.0,1.0,83,0.00,,,0.02,0,Wunderground v.1.15,2013-02-15 23:34:00,
2013-02-15 18:40:00,65.2,59.9,29.99,NE,44,0.0,1.0,83,0.00,,,0.02,0,Wunderground v.1.15,2013-02-15 23:40:00,
2013-02-15 18:46:00,65.3,60.0,29.99,NE,44,1.0,1.0,83,0.00,,,0.02,0,Wunderground v.1.15,2013-02-15 23:46:00,
2013-02-15 18:52:00,65.3,60.3,29.99,NE,44,0.0,1.0,84,0.00,,,0.02,0,Wunderground v.1.15,2013-02-15 23:52:00,
2013-02-15 18:58:00,65.2,60.2,29.99,NE,44,0.0,1.0,84,0.00,,,0.02,0,Wunderground v.1.15,2013-02-15 23:58:00,
2013-02-15 19:04:00,65.1,60.1,29.99,NE,45,1.0,3.0,84,0.00,,,0.02,0,Wunderground v.1.15,2013-02-16 00:04:00,
2013-02-15 19:10:00,65.0,60.0,29.98,NE,45,0.0,0.0,84,0.00,,,0.02,0,Wunderground v.1.15,2013-02-16 00:10:00,
2013-02-15 19:16:00,64.9,59.9,29.98,NE,45,0.0,0.0,84,0.00,,,0.02,0,Wunderground v.1.15,2013-02-16 00:16:00,
2013-02-15 19:22:00,64.9,59.9,29.98,NE,44,0.0,0.0,84,0.00,,,0.02,0,Wunderground v.1.15,2013-02-16 00:22:00,
2013-02-15 19:28:00,64.8,60.2,29.98,NE,44,0.0,0.0,85,0.00,,,0.02,0,Wunderground v.1.15,2013-02-16 00:28:00,
2013-02-15 19:34:00,64.6,60.0,29.98,NE,44,0.0,3.0,85,0.00,,,0.02,0,Wunderground v.1.15,2013-02-16 00:34:00,
2013-02-15 19:40:00,64.5,59.9,29.98,NE,44,1.0,2.0,85,0.00,,,0.02,0,Wunderground v.1.15,2013-02-16 00:40:00,
2013-02-15 19:46:00,64.6,60.0,29.99,NE,44,1.0,2.0,85,0.00,,,0.02,0,Wunderground v.1.15,2013-02-16 00:46:00,
2013-02-15 19:52:00,64.6,60.0,29.99,NE,44,0.0,1.0,85,0.00,,,0.02,0,Wunderground v.1.15,2013-02-16 00:52:00,
2013-02-15 19:58:00,64.6,60.0,29.99,NE,44,0.0,3.0,85,0.00,,,0.02,0,Wunderground v.1.15,2013-02-16 00:58:00,
2013-02-15 20:04:00,64.6,60.0,29.98,NE,44,1.0,2.0,85,0.00,,,0.02,0,Wunderground v.1.15,2013-02-16 01:04:00,
2013-02-15 20:10:00,64.4,59.8,29.98,NE,43,0.0,0.0,85,0.00,,,0.02,0,Wunderground v.1.15,2013-02-16 01:10:00,
2013-02-15 20:16:00,64.3,59.7,29.98,NE,43,0.0,0.0,85,0.00,,,0.02,0,Wunderground v.1.15,2013-02-16 01:16:00,
2013-02-15 20:22:00,64.3,59.7,29.98,NE,42,0.0,0.0,85,0.00,,,0.02,0,Wunderground v.1.15,2013-02-16 01:22:00,
2013-02-15 20:28:00,64.1,59.5,29.99,NE,42,1.0,2.0,85,0.00,,,0.02,0,Wunderground v.1.15,2013-02-16 01:28:00,
2013-02-15 20:34:00,64.0,59.4,29.99,NE,42,1.0,1.0,85,0.00,,,0.02,0,Wunderground v.1.15,2013-02-16 01:34:00,
2013-02-15 20:40:00,63.9,59.3,29.99,NE,42,0.0,0.0,85,0.00,,,0.02,0,Wunderground v.1.15,2013-02-16 01:40:00,
2013-02-15 20:46:00,63.8,59.5,30.00,NE,42,0.0,0.0,86,0.00,,,0.02,0,Wunderground v.1.15,2013-02-16 01:46:00,
2013-02-15 20:52:00,63.8,59.5,29.99,NE,42,0.0,2.0,86,0.00,,,0.02,0,Wunderground v.1.15,2013-02-16 01:52:00,
2013-02-15 20:58:00,63.9,59.3,29.98,NE,42,1.0,2.0,85,0.00,,,0.02,0,Wunderground v.1.15,2013-02-16 01:58:00,
2013-02-15 21:04:00,63.9,59.6,29.98,NE,42,1.0,3.0,86,0.00,,,0.02,0,Wunderground v.1.15,2013-02-16 02:04:00,
2013-02-15 21:10:00,63.9,59.6,29.99,NE,42,0.0,0.0,86,0.00,,,0.02,0,Wunderground v.1.15,2013-02-16 02:10:00,
2013-02-15 21:16:00,63.8,59.2,30.00,NE,42,0.0,0.0,85,0.00,,,0.02,0,Wunderground v.1.15,2013-02-16 02:16:00,
2013-02-15 21:22:00,63.6,59.3,29.99,NE,42,0.0,0.0,86,0.00,,,0.02,0,Wunderground v.1.15,2013-02-16 02:22:00,
2013-02-15 21:28:00,63.6,59.3,30.00,NE,42,0.0,0.0,86,0.00,,,0.02,0,Wunderground v.1.15,2013-02-16 02:28:00,
2013-02-15 21:34:00,63.5,59.2,30.00,NE,42,0.0,0.0,86,0.00,,,0.02,0,Wunderground v.1.15,2013-02-16 02:34:00,
2013-02-15 21:40:00,63.1,59.2,30.00,NE,42,0.0,0.0,87,0.00,,,0.02,0,Wunderground v.1.15,2013-02-16 02:40:00,
2013-02-15 21:46:00,62.9,59.3,30.00,NE,42,0.0,0.0,88,0.00,,,0.02,0,Wunderground v.1.15,2013-02-16 02:46:00,
2013-02-15 21:52:00,62.7,59.1,30.00,NE,42,0.0,0.0,88,0.00,,,0.02,0,Wunderground v.1.15,2013-02-16 02:52:00,
2013-02-15 21:58:00,62.6,59.0,30.00,NE,42,0.0,0.0,88,0.00,,,0.02,0,Wunderground v.1.15,2013-02-16 02:58:00,
2013-02-15 22:04:00,62.2,58.6,30.00,NE,42,0.0,0.0,88,0.00,,,0.02,0,Wunderground v.1.15,2013-02-16 03:04:00,
2013-02-15 22:10:00,61.5,58.5,30.00,NE,42,0.0,0.0,90,0.00,,,0.02,0,Wunderground v.1.15,2013-02-16 03:10:00,
2013-02-15 22:16:00,60.9,58.3,30.00,NE,42,0.0,0.0,91,0.00,,,0.02,0,Wunderground v.1.15,2013-02-16 03:16:00,
2013-02-15 22:22:00,60.7,58.1,30.00,NE,42,0.0,0.0,91,0.00,,,0.02,0,Wunderground v.1.15,2013-02-16 03:22:00,
2013-02-15 22:28:00,60.6,58.3,30.00,NE,42,0.0,0.0,92,0.00,,,0.02,0,Wunderground v.1.15,2013-02-16 03:28:00,
2013-02-15 22:34:00,60.5,58.2,30.00,NE,42,0.0,0.0,92,0.00,,,0.02,0,Wunderground v.1.15,2013-02-16 03:34:00,
2013-02-15 22:40:00,60.4,58.1,30.00,NE,42,0.0,0.0,92,0.00,,,0.02,0,Wunderground v.1.15,2013-02-16 03:40:00,
2013-02-15 22:46:00,60.0,57.7,30.00,NE,42,0.0,0.0,92,0.00,,,0.02,0,Wunderground v.1.15,2013-02-16 03:46:00,
2013-02-15 22:52:00,59.7,57.7,30.00,NE,42,0.0,0.0,93,0.00,,,0.02,0,Wunderground v.1.15,2013-02-16 03:52:00,
2013-02-15 22:58:00,59.3,57.3,29.99,NE,42,0.0,0.0,93,0.00,,,0.02,0,Wunderground v.1.15,2013-02-16 03:58:00,
2013-02-15 23:04:00,59.3,57.6,30.00,NE,42,0.0,0.0,94,0.00,,,0.02,0,Wunderground v.1.15,2013-02-16 04:04:00,
2013-02-15 23:10:00,59.4,57.7,29.99,NE,42,0.0,0.0,94,0.00,,,0.02,0,Wunderground v.1.15,2013-02-16 04:10:00,
2013-02-15 23:16:00,59.4,57.7,29.99,NE,42,0.0,0.0,94,0.00,,,0.02,0,Wunderground v.1.15,2013-02-16 04:16:00,
2013-02-15 23:22:00,59.4,57.7,29.99,NE,42,0.0,0.0,94,0.00,,,0.02,0,Wunderground v.1.15,2013-02-16 04:22:00,
2013-02-15 23:28:00,59.4,57.7,29.99,NE,42,0.0,0.0,94,0.00,,,0.02,0,Wunderground v.1.15,2013-02-16 04:28:00,
2013-02-15 23:34:00,59.5,57.8,29.99,NE,42,0.0,0.0,94,0.00,,,0.02,0,Wunderground v.1.15,2013-02-16 04:34:00,
2013-02-15 23:40:00,59.5,57.8,29.99,NE,42,0.0,0.0,94,0.00,,,0.02,0,Wunderground v.1.15,2013-02-16 04:40:00,
2013-02-15 23:46:00,59.5,57.8,29.98,NE,42,0.0,0.0,94,0.00,,,0.02,0,Wunderground v.1.15,2013-02-16 04:46:00,
2013-02-15 23:52:00,59.4,57.7,29.98,NE,42,0.0,0.0,94,0.00,,,0.02,0,Wunderground v.1.15,2013-02-16 04:52:00,
2013-02-15 23:58:00,59.4,57.7,29.98,NE,42,0.0,0.0,94,0.00,,,0.02,0,Wunderground v.1.15,2013-02-16 04:58:00,